Location: Lake Harris Campground
(43.9775°N, 74.1317°W)
Time: 05:52:15
(UTC-04:00)

ISS - All Passes

Search period start: 24 May 2016 00:00
Search period end: 03 June 2016 00:00
Orbit: 402 x 404 km, 51.6° (Epoch: 23 May)

Date Brightness Start Highest point End Pass type
(mag) Time Alt. Az. Time Alt. Az. Time Alt. Az.
24 May - 00:08:47 10° WSW 00:12:02 68° NNW 00:15:18 10° NE visible
24 May - 01:46:13 10° WNW 01:48:55 23° N 01:51:36 10° NE visible
24 May - 03:23:23 10° NW 03:26:05 23° N 03:28:48 10° ENE visible
24 May - 04:59:41 10° NW 05:02:57 71° NNE 05:06:11 10° ESE daylight
24 May - 06:36:56 10° W 06:39:03 16° SW 06:41:10 10° S daylight
24 May - 23:16:03 10° SW 23:19:18 68° SE 23:22:33 10° ENE visible
25 May - 00:53:05 10° WNW 00:55:57 28° NNW 00:58:51 10° NE visible
25 May - 02:30:32 10° NW 02:33:07 21° N 02:35:42 10° NE visible
25 May - 04:06:59 10° NW 04:10:08 43° NNE 04:13:17 10° E visible
25 May - 05:43:36 10° WNW 05:46:30 29° SW 05:49:22 10° SSE daylight
25 May - 22:23:36 10° SSW 22:26:38 36° SE 22:29:39 10° ENE visible
25 May - 23:59:58 10° W 00:03:04 38° NNW 00:06:09 10° NE visible
26 May - 01:37:34 10° NW 01:40:08 21° N 01:42:41 10° NE visible
26 May - 03:14:17 10° NW 03:17:15 31° NNE 03:20:13 10° E visible
26 May - 04:50:38 10° WNW 04:53:51 54° SW 04:57:02 10° SE daylight
26 May - 21:31:33 10° S 21:34:01 20° SE 21:36:30 10° E visible
26 May - 23:06:59 10° WSW 23:10:13 58° NNW 23:13:28 10° NE visible
27 May - 00:44:29 10° WNW 00:47:08 22° N 00:49:47 10° NE visible
27 May - 02:21:33 10° NW 02:24:19 24° NNE 02:27:04 10° ENE visible
27 May - 03:57:50 10° WNW 04:01:07 83° NNE 04:04:22 10° ESE visible
27 May - 05:35:26 10° W 05:37:08 14° SW 05:38:50 10° SSW daylight
27 May - 20:40:34 10° SSE 20:41:30 11° SE 20:42:25 10° ESE daylight
27 May - 22:14:10 10° SW 22:17:26 82° SSE 22:20:42 10° ENE visible
27 May - 23:51:19 10° WNW 23:54:09 26° NNW 23:56:59 10° NE visible
28 May - 01:28:43 10° NW 01:31:20 21° N 01:33:56 10° ENE visible
28 May - 03:05:06 10° NW 03:08:18 49° NNE 03:11:29 10° ESE visible
28 May - 04:41:52 10° W 04:44:35 24° SW 04:47:17 10° SSE visible
28 May - 21:21:36 10° SW 21:24:42 43° SE 21:27:50 10° ENE visible
28 May - 22:58:11 10° W 23:01:13 34° NNW 23:04:15 10° NE visible
29 May - 00:35:45 10° NW 00:38:19 21° N 00:40:52 10° NE visible
29 May - 02:12:23 10° NW 02:15:24 34° NNE 02:18:25 10° E visible
29 May - 03:48:47 10° WNW 03:51:56 45° SW 03:55:03 10° SE visible
29 May - 20:29:22 10° SSW 20:32:04 24° SE 20:34:45 10° E daylight
29 May - 22:05:08 10° WSW 22:08:19 51° NNW 22:11:32 10° NE visible
29 May - 23:42:40 10° WNW 23:45:17 22° N 23:47:54 10° NE visible
30 May - 01:19:38 10° NW 01:22:28 26° NNE 01:25:16 10° ENE visible
30 May - 02:55:55 10° WNW 02:59:12 84° SSW 03:02:28 10° SE visible
30 May - 04:34:04 10° WSW 04:35:09 11° SW 04:36:12 10° SSW visible
30 May - 19:37:51 10° SSE 19:39:29 13° SE 19:41:07 10° ESE daylight
30 May - 21:12:14 10° WSW 21:15:30 85° NNW 21:18:47 10° ENE visible
30 May - 22:49:30 10° WNW 22:52:17 25° NNW 22:55:03 10° NE visible
31 May - 00:26:48 10° NW 00:29:27 22° N 00:32:06 10° ENE visible
31 May - 02:03:09 10° NW 02:06:23 57° NNE 02:09:36 10° ESE visible
31 May - 03:40:04 10° W 03:42:35 21° SW 03:45:06 10° S visible
31 May - 20:19:33 10° SW 20:22:44 52° SE 20:25:56 10° ENE daylight
31 May - 21:56:19 10° W 21:59:18 31° NNW 22:02:17 10° NE visible
31 May - 23:33:51 10° NW 23:36:26 21° N 23:38:59 10° NE visible
01 Jun - 01:10:24 10° NW 01:13:29 37° NNE 01:16:34 10° E visible
01 Jun - 02:46:53 10° WNW 02:49:57 37° SW 02:52:59 10° SSE visible
01 Jun - 19:27:11 10° SSW 19:30:02 28° SE 19:32:54 10° ENE daylight
01 Jun - 21:03:13 10° W 21:06:22 44° NNW 21:09:32 10° NE visible
01 Jun - 22:40:47 10° WNW 22:43:23 21° N 22:45:58 10° NE visible
02 Jun - 00:17:39 10° NW 00:20:32 28° NNE 00:23:24 10° ENE visible
02 Jun - 01:53:57 10° WNW 01:57:12 70° SW 02:00:27 10° SE visible
02 Jun - 18:35:21 10° S 18:37:24 16° SE 18:39:28 10° E daylight
02 Jun - 20:10:14 10° WSW 20:13:30 73° NNW 20:16:46 10° NE daylight
02 Jun - 21:47:37 10° WNW 21:50:20 23° N 21:53:03 10° NE visible
02 Jun - 23:24:49 10° NW 23:27:31 23° N 23:30:12 10° ENE visible
